Погода в Балкашине

Россия / Пензенская область     52°52′37″N   43°37′20″E
темп.,
°C
ветер,
м/с
пор.,
м/с
влажн.,
%
обл.,
%
осадки,
мм/ч
давл.,
гПа
погр.,
м
12 апреля, пн
пн1200:00+5св599681 0.0 1030268
03:00+4св5998100 0.0 1030213
06:00+5всв61197100 0.0 1031246
09:00+9всв6985100 0.0 1031282
12:00+14в6768100 0.0 1030525
15:00+19вюв575191 0.0 1029931
18:00+16вюв4958100 0.0 1029192
21:00+12в41073100 0.0 1030148
13 апреля, вт
вт1300:00+10вюв4128178 0.0 1030202
03:00+9вюв497869 0.0 1031138
06:00+7вюв4107673 0.0 1031164
09:00+13юв6115435 0.0 1031375
12:00+18юв68375 0.0 1030923
15:00+19юв67295 0.0 10281638
18:00+16юв48445 0.0 1028190
21:00+11юв475881 0.0 102999
14 апреля, ср
ср1400:00+9вюв49675 0.0 1028137
03:00+8вюв410741 0.0 1027155
06:00+7вюв410740 0.0 1027155
09:00+12юв695193 0.0 1026375
12:00+17юв6735100 0.0 10241034
15:00+18юв6732100 0.0 10231392
18:00+15юв484512 0.0 1022181
21:00+11вюв4659100 0.0 102290
15 апреля, чт
чт1500:00+9вюв4766100 0.0 1021114
03:00+8юв4771100 0.0 1021103
06:00+7юв3777100 0.0 1020104
09:00+13юв466099 0.0 1019315
12:00+17юв44435 0.0 10181079
15:00+19юв33370 0.0 10171703
18:00+17в34471 0.0 101662
21:00+13вюв45585 0.0 101663
16 апреля, пт
пт1600:00+11вюв44678 0.0 101553
03:00+10вюв46715 0.0 101480
06:00+9ссв227797 0.1 101419
09:00+14в4557100 0.1 1014287
12:00+17всв685098 0.0 1013583
15:00+19в5641100 0.0 10122175
18:00+12св71181100 2.0 1012607
21:00+7св101686100 2.3 1014553